Location: Le Port Boulet
(47.2469°N, 0.1620°E)
Time: 05:14:19
(UTC+00:00)

Daily predictions for brighter satellites

Satellite Brightness Start Highest point End
(mag) Time Altitude Azimuth Time Altitude Azimuth Time Altitude Azimuth
Cosmos 1707 Rocket 3.3 00:00:40 10° N 00:05:02 86° E 00:05:18 78° SSE
Okean 1 3.3 00:01:23 10° N 00:05:26 72° E 00:05:27 72° E
Cosmos 494 Rocket 4.0 00:13:18 53° SE 00:13:59 58° ESE 00:19:01 10° NNE
Cosmos 2285 Rocket 3.9 00:07:55 10° NNW 00:14:13 75° WSW 00:16:07 47° S
Cosmos 2333 Rocket 2.1 00:09:10 10° NNW 00:14:48 70° WSW 00:16:02 53° S
Meteor 1-25 Rocket 4.2 00:18:08 48° SSW 00:19:42 73° WNW 00:25:18 10° N
Cosmos 2084 3.9 00:20:13 46° W 00:20:59 55° NW 00:25:07 10° NE
ATLAS 5 CENTAUR R/B 2.9 00:17:44 10° NNW 00:23:03 54° NE 00:28:59 12° ESE
Cosmos 1805 Rocket 4.5 00:22:54 35° W 00:23:40 38° WNW 00:27:52 10° N
Cosmos 2360 Rocket 3.2 00:19:47 10° NW 00:24:35 30° WSW 00:25:09 29° WSW
Cosmos 1452 Rocket 3.7 00:21:09 10° NNW 00:26:15 54° WSW 00:26:58 50° SW
PSLV R/B 3.7 00:22:44 10° NNE 00:27:32 88° W 00:28:18 63° SSW
Cosmos 1666 3.3 00:29:44 45° E 00:29:44 45° E 00:33:20 10° NNE
Meteor 1-19 Rocket 4.2 00:24:43 10° NNW 00:30:26 69° W 00:31:46 51° SSW
Cosmos 2322 3.9 00:25:37 10° NW 00:31:13 55° WSW 00:32:15 48° SSW
Meteor 1-14 Rocket 4.2 00:30:32 49° SSE 00:31:56 68° E 00:37:30 10° NNE
APEX 4.5 00:40:59 43° SSE 00:42:11 50° ESE 00:48:14 10° NE
Resurs 1-4 Rocket 3.6 00:37:53 10° NE 00:42:14 25° E 00:44:08 21° SE
Cosmos 2297 Rocket 3.1 00:46:29 31° SE 00:47:54 36° ESE 00:53:02 10° NE
NOSS 3-1 (C) 4.2 00:43:07 10° NW 00:50:30 55° WSW 00:54:02 35° S
Cosmos 2237 Rocket 2.6 00:45:32 10° NNW 00:51:11 62° ENE 00:54:35 24° SE
Meteor 2-17 Rocket 4.4 00:54:55 43° S 00:57:02 82° E 01:03:07 10° N
Cosmos 2227 Rocket 3.3 00:56:52 27° SE 00:58:32 33° ESE 01:03:31 10° NE
TSX-5 4.2 00:59:09 45° ESE 00:59:09 45° ESE 01:03:04 10° NE
Cosmos 1110 Rocket 4.2 00:54:34 10° NNW 00:59:46 54° WSW 01:00:40 47° SW
Cosmos 1709 Rocket 4.1 00:58:20 38° SSE 01:00:51 68° E 01:07:10 10° NNE
Cosmos 1470 Rocket 3.5 01:00:37 62° SW 01:01:08 70° W 01:05:27 10° N
USA 229 DEB 3.9 00:54:04 10° NW 01:01:21 69° SW 01:05:34 29° SSE
USA 229 3.9 00:54:08 10° NW 01:01:27 69° SW 01:05:44 29° SSE
Meteor 2-4 Rocket 3.9 00:57:31 10° NNW 01:03:26 66° W 01:05:15 44° SSW
EO 1 Del DPAF 3.2 00:59:58 10° N 01:03:41 67° WNW 01:03:46 67° W
COSMOS 2487 4.3 01:07:03 20° WNW 01:07:23 21° WNW 01:10:02 10° N
Cosmos 1933 Rocket 3.5 01:07:30 62° S 01:08:15 90° W 01:12:45 10° N
Cosmos 1745 Rocket 4.1 01:06:16 40° SSW 01:08:33 67° WNW 01:14:48 10° N
NOSS 0 Rocket 3.9 01:02:54 10° NNW 01:09:06 70° WSW 01:11:32 38° S
Cosmos 1331 Rocket 4.3 01:05:58 10° NNW 01:11:00 47° WSW 01:11:48 43° SW
YAOGAN 11 4.1 01:10:25 55° S 01:11:24 82° WSW 01:15:59 10° NNW
Cosmos 1633 Rocket 4.1 01:10:54 30° W 01:11:40 32° WNW 01:15:39 10° N
Cosmos 1500 4.5 01:11:31 29° W 01:11:45 29° WNW 01:15:09 10° N
COSMOS 2428 3.3 01:06:39 10° NW 01:11:53 38° WSW 01:12:40 36° SW
MOZ.5/SAFIR/RUBIN 5/SL-8 3.7 01:11:26 47° SSE 01:12:49 88° ENE 01:17:35 10° NNW
Lacrosse 5 3.1 01:12:35 26° SE 01:13:02 26° SE 01:17:13 10° ENE
SL-16 R/B 3.6 01:08:41 10° NNW 01:13:56 37° NE 01:19:09 10° ESE
ADEOS Rocket 3.8 01:11:00 13° SE 01:15:37 43° ENE 01:20:46 10° N
CZ-2D R/B 2.8 01:11:20 10° NNE 01:16:31 47° E 01:18:42 31° SSE
Okean 1-7 2.8 01:13:04 10° N 01:17:21 87° W 01:18:05 61° S
SL-16 R/B 2.9 01:13:31 21° SE 01:17:46 63° ENE 01:23:52 10° N
COSMOS 2455 3.5 01:14:38 24° WSW 01:18:00 48° NW 01:23:50 10° NNE
Cosmos 1544 3.5 01:18:15 48° ESE 01:18:34 50° E 01:22:07 10° NNE
Helios 1A 2.9 01:18:25 60° S 01:19:08 79° WSW 01:23:23 10° NNW
Meteor 1-5 Rocket 4.4 01:18:51 40° SW 01:20:47 65° WNW 01:26:34 10° N
Okean 3 3.8 01:17:13 10° N 01:21:29 60° ENE 01:22:53 38° SE
NOSS 3-1 (A) 4.2 01:14:16 10° NW 01:21:41 57° WSW 01:26:38 26° S
Cosmos 2219 Rocket 3.3 01:17:44 10° NW 01:22:16 26° WSW 01:22:37 25° WSW
ARGOS Delta rocket 3.8 01:19:45 10° N 01:24:35 72° WNW 01:25:47 48° SW
ADEOS II 3.6 01:20:35 10° NE 01:25:05 28° E 01:28:02 17° SE
MINOTAUR IV R/B 4.5 01:21:00 10° NNW 01:25:35 79° WSW 01:26:47 49° S
Cosmos 1340 Rocket 2.7 01:27:12 60° WSW 01:27:38 66° WNW 01:31:33 10° N
CZ-4 R/B 4.0 01:24:28 10° N 01:29:25 72° WNW 01:31:02 43° SW
Cosmos 1743 3.4 01:33:42 38° SE 01:34:38 47° E 01:38:20 10° NNE
Cosmos 1269 Rocket 4.0 01:34:36 41° SW 01:36:30 77° WNW 01:41:49 10° NNE
NOSS 2-2 (D) 4.4 01:32:48 10° NW 01:38:04 83° NE 01:45:31 10° SE
AQUA 4.5 01:35:13 10° NNE 01:39:49 47° E 01:41:55 28° SSE
ASTEX 1 3.4 01:38:33 42° SSW 01:40:04 66° W 01:44:58 10° N
Helios 1B rocket 3.1 01:40:06 10° NNE 01:44:05 47° E 01:45:31 33° SSE
Cosmos 2219 3.2 01:42:03 36° SSW 01:44:31 80° ESE 01:50:18 10° NNE
Cosmos 1703 Rocket 4.0 01:42:05 10° NNW 01:46:11 42° W 01:46:53 39° WSW
Cosmos 1066 Rocket 4.3 01:40:57 10° NNW 01:46:48 70° W 01:49:38 32° S
Cosmos 2074 Rocket 4.4 01:43:18 23° SSE 01:47:07 59° E 01:53:13 10° NNE
Cosmos 2084 Rocket 3.3 01:50:25 10° NW 01:54:38 78° SW 01:57:52 18° SSE
Meteor 1-11 Rocket 3.8 01:54:11 33° SW 01:56:37 64° WNW 02:02:08 10° N
Cosmos 2333 Rocket 4.3 01:56:56 10° W 01:57:59 11° W 01:57:59 11° W
Cosmos 2181 Rocket 4.1 01:51:57 10° NNW 01:58:16 65° W 02:01:43 28° SSW
Cosmos 1992 Rocket 3.9 01:55:56 10° NNW 02:01:11 78° WSW 02:04:37 22° SSE
Cosmos 2082 4.1 02:02:39 26° S 02:05:47 57° ESE 02:11:24 10° NE
ATLAS 5 CENTAUR R/B 2.9 02:02:28 10° NW 02:07:42 37° WSW 02:10:23 26° SSW
Cosmos 1733 Rocket 3.5 02:05:38 25° SSE 02:08:02 57° E 02:12:25 10° NNE
Cosmos 1842 3.7 02:06:37 10° N 02:10:26 57° ENE 02:13:03 19° SSE
Cosmos 1980 4.4 02:05:26 10° NW 02:10:27 33° WSW 02:12:05 28° SW
CZ-4C R/B 3.7 02:04:40 10° NW 02:11:33 55° NE 02:19:37 10° ESE
Cosmos 1536 3.8 02:15:44 28° WSW 02:16:52 33° WNW 02:20:33 10° N
IDEFIX/ARIANE 42P 3.4 02:12:55 10° NNE 02:17:53 44° E 02:22:01 14° SSE
Resurs 1-4 Rocket 2.5 02:17:11 10° N 02:22:19 50° WNW 02:25:13 25° SW
Cosmos 2251 Rocket 3.5 02:27:52 24° SSW 02:31:05 90° ESE 02:36:25 10° NNE
Meteor 1-29 2.8 02:28:22 10° NNE 02:31:42 83° ESE 02:33:12 30° S
Cosmos 2297 Rocket 3.0 02:28:17 20° WSW 02:31:53 42° NW 02:37:16 10° NNE
Cosmos 2237 Rocket 3.4 02:30:24 10° NW 02:34:46 23° WSW 02:36:20 21° SW
NPP 4.1 02:30:13 10° N 02:35:25 50° WNW 02:38:43 22° SW
Okean 2 3.5 02:36:00 10° N 02:40:12 76° E 02:44:21 10° SSE
Nadezhda 3 Rocket 4.0 02:34:15 10° N 02:40:38 81° W 02:46:58 10° S
Cosmos 1238 Rocket 2.5 02:40:33 23° S 02:42:17 65° E 02:45:36 10° NNE
Cosmos 2227 Rocket 2.8 02:38:41 19° WSW 02:42:25 45° NW 02:47:52 10° NNE
Cosmos 2221 Rocket 4.0 02:40:31 10° NNW 02:44:52 46° W 02:47:38 20° SSW
BREEZE-M DEB (TANK) 4.3 02:38:46 17° SW 02:46:51 52° SSE 02:50:27 10° E
Timation 2 Rocket 4.3 02:46:39 18° SW 02:50:57 53° NW 02:56:57 10° NNE
Cosmos 2327 Rocket 4.5 02:46:03 16° SSW 02:51:06 76° W 02:57:17 10° N
CZ-4C R/B 3.6 02:47:33 10° SSE 02:51:35 76° ENE 02:55:51 10° N
USA 267 4.4 02:47:40 10° E 02:53:50 47° NNE 03:00:02 10° NW
Meteor 2-9 Rocket 4.1 02:51:21 18° SSW 02:55:23 69° WNW 03:00:44 10° N
Lacrosse 5 2.0 02:51:46 17° WSW 02:55:38 73° NW 03:00:43 10° NE
CZ-2D R/B 3.4 02:51:48 10° N 02:56:21 29° WNW 03:00:01 14° WSW
SL-16 R/B 2.6 02:52:49 10° NW 02:58:07 41° WSW 03:03:22 10° S
Cosmos 1140 Rocket 3.8 02:54:33 13° S 02:59:11 65° ESE 03:04:23 10° NNE
ADEOS Rocket 3.7 02:57:57 17° SW 03:01:20 30° W 03:06:07 10° NW
SL-16 R/B 3.7 02:58:37 16° SW 03:01:48 24° W 03:06:45 10° NW
ARIANE 5 R/B 3.2 02:58:30 10° NNE 03:03:33 53° E 03:08:37 10° S
ADEOS II 2.6 02:59:57 10° N 03:04:56 45° WNW 03:08:58 15° SW
CZ-4B R/B 4.3 03:01:19 10° NNE 03:06:02 45° E 03:10:37 10° S
IRS-1C 4.4 03:02:22 10° NNE 03:07:43 71° ESE 03:13:02 10° S
Cosmos 1674 Rocket 3.9 03:03:35 10° NNW 03:07:48 45° W 03:11:40 12° SSW
ATLAS CENTAUR R/B 3.0 03:07:27 10° S 03:10:32 25° ESE 03:13:46 10° ENE
NOSS 3-3 (A) 4.3 03:05:31 12° SSW 03:10:39 56° ESE 03:17:00 10° NE
NOSS 3-3 (C) 4.4 03:05:38 12° SSW 03:10:46 55° ESE 03:17:05 10° NE
Cosmos 2263 Rocket 2.5 03:05:29 11° SSW 03:10:49 68° ESE 03:16:30 10° NNE
Cosmos 2154 Rocket 4.4 03:09:01 14° SSW 03:14:09 49° WNW 03:20:12 10° N
Cosmos 1461 3.2 03:10:48 14° SSW 03:14:40 71° ESE 03:19:07 10° NE
Meteor 1-28 Rocket 4.3 03:12:38 16° SW 03:14:47 26° W 03:18:00 10° NW
IRS-1D 4.0 03:11:48 10° N 03:16:31 45° WNW 03:20:43 13° SW
Cosmos 1975 3.5 03:13:47 15° SW 03:16:45 39° WNW 03:20:37 10° N
Helios 1B rocket 4.2 03:16:08 10° NNW 03:18:59 19° WNW 03:21:48 10° WSW
Cosmos 1975 Rocket 3.4 03:20:52 10° N 03:25:18 70° E 03:29:39 10° SSE
In-Cosmos 22 4.3 03:20:07 10° NNW 03:25:51 67° W 03:31:32 10° S
KORONAS-FOTON 3.9 03:24:30 10° N 03:28:26 86° E 03:32:21 10° S
Cosmos 1378 Rocket 4.4 03:25:49 10° NNW 03:29:41 31° W 03:33:30 10° SSW
GEOS 3 Rocket 3.8 03:28:12 10° SSE 03:33:28 57° SW 03:38:43 10° NW
Cosmos 676 Rocket 4.5 03:28:21 10° S 03:33:35 63° ESE 03:38:53 10° NNE
Cosmos 1707 3.4 03:30:49 10° NNW 03:34:19 34° W 03:37:47 10° SSW
SL-8 R/B 4.2 03:30:01 11° SW 03:34:24 50° SSE 03:39:04 10° ENE
Cosmos 44 3.4 03:30:55 10° NW 03:36:11 71° WSW 03:41:08 10° SSE
Cosmos 1908 Rocket 4.0 03:33:23 10° SSW 03:37:33 45° WNW 03:41:44 10° N
Cosmos 1943 3.2 03:33:17 10° NNW 03:39:00 75° WSW 03:44:41 10° SSE
Cosmos 407 Rocket 3.9 03:37:40 10° SW 03:42:51 53° WNW 03:48:02 10° NNE
Meteor 1-12 Rocket 4.4 03:38:22 10° S 03:44:01 85° E 03:49:46 10° NNE
MOS 1 Rocket 4.3 03:41:49 10° SSE 03:46:47 58° ENE 03:52:01 10° N
BREEZE-M DEB (TANK) 2.6 03:44:12 10° W 03:47:11 46° SSW 03:50:15 10° ESE
Cosmos 1959 Rocket 4.5 03:41:37 10° SSW 03:47:43 80° W 03:53:56 10° N
IRS-P3 4.4 03:43:01 10° N 03:48:14 55° WNW 03:53:26 10° SW
USA 281 3.7 03:41:58 10° SE 03:48:28 68° ENE 03:55:00 10° NNW
Cosmos 1766 4.2 03:45:40 10° S 03:49:25 50° E 03:53:13 10° NNE
MSX 4.3 03:46:18 10° N 03:51:44 46° WNW 03:57:09 10° SW
SL-8 Rocket 4.1 03:47:33 10° SSW 03:53:39 60° WNW 03:59:45 10° N
Cosmos 1733 3.4 03:51:03 10° S 03:54:53 78° E 03:58:45 10° NNE
Cosmos 2366 rocket 4.1 03:49:15 10° SSW 03:55:36 71° W 04:01:58 10° N
